Regional Weather Roundup
Issued by NWS

Home | Current Version | Previous Version | Graphics & Text | Print | Product List | Glossary On
Versions: 1 2 3 4 5 6 7 8 9 10 11 12 13 14 15 16 17 18 19 20 21 22 23 24 25 26 27 28 29 30 31 32 33 34 35 36 37 38 39 40 41 42 43 44 45 46 47 48 49 50
000
ASUS43 KLMK 051302
RWRKY
KENTUCKY REGIONAL WEATHER ROUNDUP
NATIONAL WEATHER SERVICE LOUISVILLE KY
900 AM EDT SAT SEP 05 2015

NOTE "FAIR" INDICATES FEW OR NO CLOUDS BELOW 12,000 FEET
WITH NO SIGNIFICANT WEATHER AND/OR OBSTRUCTIONS TO VISIBILITY.

KYZ001>023-026-027-061>063-070>075-051400-
WESTERN AND SOUTH CENTRAL KENTUCKY

CITY           SKY/WX    TMP DP  RH WIND       PRES   REMARKS
PADUCAH        SUNNY     74  70  87 CALM      30.09R FOG
HENDERSON      SUNNY     72  66  83 CALM      30.10R
OWENSBORO      SUNNY     76  67  73 E3        30.12R
HOPKINSVILLE   SUNNY     72  68  87 CALM      30.10R
BOWLING GREEN  SUNNY     74  68  81 CALM      30.11R
GLASGOW        SUNNY     73  68  86 E6        30.13R
$$

KYZ024-025-028>034-038-045-046-053-051400-
NORTH CENTRAL KENTUCKY

CITY           SKY/WX    TMP DP  RH WIND       PRES   REMARKS
LOUISVILLE/SDF MOSUNNY   76  64  66 E3        30.13R
LOUISVILLE/LOU SUNNY     74  66  76 N3        30.14R
FORT KNOX      SUNNY     74  64  71 E3        30.12R
$$

KYZ035>037-039>044-047>052-055>060-089>105-051400-
NORTHEAST KENTUCKY

CITY           SKY/WX    TMP DP  RH WIND       PRES   REMARKS
LEXINGTON      SUNNY     73  64  73 E5        30.16R
COVINGTON      MOSUNNY   72  66  81 CALM      30.16R
FRANKFORT      SUNNY     71  63  75 SE5       30.14S
$$

KYZ054-064>069-076>088-106>120-051400-
SOUTHEAST KENTUCKY

CITY           SKY/WX    TMP DP  RH WIND       PRES   REMARKS
JACKSON        SUNNY     71  67  87 CALM      30.18R FOG
LONDON         SUNNY     73  66  78 SE3       30.17R
SOMERSET       NOT AVBL
MIDDLESBORO    CLOUDY    65  65 100 CALM      30.18R FOG
MONTICELLO     SUNNY     72  71  96 CALM      30.17S
$$




USA.gov is the U.S. government's official web portal to all federal, state and local government web resources and services.